Date String (YYYY-MM-DD hh:mm:ss) UTC,Instrument flags,Ambient pressure (hPa),Sample flow (lpm),Bypass flow (lpm),Sample temperature (°C),Ambient temperature (°C),ASC tube jacket temperature (°C),LED temperature (°C),Box temperature (°C),Sample RH (%),Span deviation,Mass concentration (μg/m³),Mass concentration (μg/m³),Mass concentration (μg/m³)
DateTimeUTC,F1_M11,P_M11,Q1_M11,Q2_M11,T1_M11,T2_M11,T3_M11,T4_M11,T5_M11,U1_M11,ZSPAN_M11,X0_M11,X2_M11,X1_M11
2022-05-24 03:00:00,,0826.4,5.01,0.00,29.5,28.5,00.0,38.4,31.3,16.7,0000.0,0006.35,0003.70,0003.29
2022-05-24 03:01:00,,0826.5,5.00,0.00,29.5,28.5,00.0,38.4,31.3,16.7,0000.0,0006.86,0003.72,0003.32
2022-05-24 03:02:00,,0826.5,4.99,0.00,29.5,28.5,00.0,38.4,31.3,16.5,0000.0,0006.72,0003.72,0003.34
2022-05-24 03:03:00,,0826.5,5.00,0.00,29.5,28.5,00.0,38.4,31.3,16.5,0000.0,0006.56,0003.73,0003.38
2022-05-24 03:04:00,,0826.5,5.00,0.00,29.5,28.5,00.0,38.4,31.3,16.4,0000.0,0006.85,0003.80,0003.42
2022-05-24 03:05:00,,0826.5,5.00,0.00,29.5,28.4,00.0,38.4,31.3,16.5,0000.0,0007.04,0003.84,0003.44
2022-05-24 03:06:00,,0826.5,5.00,0.00,29.5,28.4,00.0,38.4,31.3,16.6,0000.0,0006.93,0003.86,0003.47
2022-05-24 03:07:00,,0826.5,4.99,0.00,29.5,28.4,00.0,38.4,31.3,16.6,0000.0,0007.63,0003.87,0003.48
2022-05-24 03:08:00,,0826.5,4.99,0.00,29.5,28.4,00.0,38.4,31.3,16.6,0000.0,0007.96,0003.91,0003.50
2022-05-24 03:09:00,,0826.5,5.00,0.00,29.5,28.4,00.0,38.4,31.3,16.5,0000.0,0008.09,0003.95,0003.53
2022-05-24 03:10:00,,0826.6,5.00,0.00,29.5,28.4,00.0,38.4,31.3,16.5,0000.0,0008.12,0003.95,0003.55
2022-05-24 03:11:00,,0826.5,5.00,0.00,29.5,28.5,00.0,38.4,31.3,16.6,0000.0,0008.14,0003.95,0003.56
2022-05-24 03:12:00,,0826.5,4.99,0.00,29.5,28.5,00.0,38.4,31.3,16.7,0000.0,0007.89,0003.95,0003.57
2022-05-24 03:13:00,,0826.5,5.00,0.00,29.5,28.5,00.0,38.4,31.3,16.7,0000.0,0007.81,0003.98,0003.58
2022-05-24 03:14:00,,0826.6,5.01,0.00,29.5,28.5,00.0,38.4,31.3,16.8,0000.0,0007.81,0003.96,0003.57
2022-05-24 03:15:00,,0826.5,5.01,0.00,29.5,28.5,00.0,38.4,31.3,16.9,0000.0,0007.67,0003.92,0003.56
2022-05-24 03:16:00,,0826.6,5.01,0.00,29.5,28.5,00.0,38.4,31.3,16.8,0000.0,0007.61,0003.91,0003.55
2022-05-24 03:17:00,,0826.6,4.99,0.00,29.5,28.5,00.0,38.4,31.3,16.8,0000.0,0007.57,0003.90,0003.55
2022-05-24 03:18:00,,0826.6,5.00,0.00,29.5,28.5,00.0,38.4,31.3,16.6,0000.0,0006.89,0003.93,0003.55
2022-05-24 03:19:00,,0826.6,5.01,0.00,29.5,28.5,00.0,38.4,31.3,16.7,0000.0,0006.91,0003.95,0003.55
2022-05-24 03:20:00,,0826.6,4.99,0.00,29.5,28.5,00.0,38.4,31.3,16.6,0000.0,0006.77,0003.93,0003.54
2022-05-24 03:21:00,,0826.7,5.00,0.00,29.5,28.5,00.0,38.5,31.3,16.6,0000.0,0006.73,0003.95,0003.53
2022-05-24 03:22:00,,0826.7,5.01,0.00,29.5,28.5,00.0,38.5,31.3,16.5,0000.0,0006.85,0003.98,0003.53
2022-05-24 03:23:00,,0826.7,4.99,0.00,29.5,28.5,00.0,38.5,31.3,16.5,0000.0,0006.88,0003.99,0003.53
2022-05-24 03:24:00,,0826.7,5.00,0.00,29.5,28.5,00.0,38.5,31.3,16.8,0000.0,0006.84,0003.98,0003.51
2022-05-24 03:25:00,,0826.7,5.00,0.00,29.5,28.5,00.0,38.5,31.4,17.0,0000.0,0006.78,0003.96,0003.50
2022-05-24 03:26:00,,0826.7,5.00,0.00,29.6,28.5,00.0,38.5,31.4,16.9,0000.0,0006.83,0003.97,0003.50
2022-05-24 03:27:00,,0826.7,4.99,0.00,29.6,28.5,00.0,38.5,31.4,17.0,0000.0,0006.83,0003.96,0003.49
2022-05-24 03:28:00,,0826.7,4.99,0.00,29.5,28.5,00.0,38.5,31.4,17.0,0000.0,0007.27,0003.97,0003.47
2022-05-24 03:29:00,,0826.7,5.01,0.00,29.5,28.5,00.0,38.5,31.4,17.6,0000.0,0007.25,0003.96,0003.47
2022-05-24 03:30:00,,0826.7,5.00,0.00,29.6,28.5,00.0,38.5,31.4,18.1,0000.0,0007.20,0003.94,0003.46
2022-05-24 03:31:00,,0826.8,5.00,0.00,29.6,28.5,00.0,38.5,31.4,18.2,0000.0,0007.36,0003.97,0003.46
2022-05-24 03:32:00,,0826.8,5.00,0.00,29.6,28.5,00.0,38.5,31.3,18.0,0000.0,0007.47,0003.97,0003.45
2022-05-24 03:33:00,,0826.8,5.00,0.00,29.5,28.5,00.0,38.5,31.3,18.1,0000.0,0007.79,0003.94,0003.44
2022-05-24 03:34:00,,0826.8,5.00,0.00,29.6,28.5,00.0,38.5,31.3,18.2,0000.0,0007.76,0003.92,0003.43
2022-05-24 03:35:00,,0826.7,5.01,0.00,29.5,28.5,00.0,38.5,31.3,18.3,0000.0,0007.85,0003.92,0003.43
2022-05-24 03:36:00,,0826.7,5.01,0.00,29.5,28.5,00.0,38.5,31.3,18.2,0000.0,0007.84,0003.93,0003.43
2022-05-24 03:37:00,,0826.8,4.99,0.00,29.5,28.4,00.0,38.5,31.3,18.4,0000.0,0007.81,0003.92,0003.42
2022-05-24 03:38:00,,0826.8,5.01,0.00,29.5,28.4,00.0,38.5,31.3,18.7,0000.0,0007.80,0003.91,0003.42
2022-05-24 03:39:00,,0826.8,5.00,0.00,29.5,28.5,00.0,38.5,31.3,18.7,0000.0,0007.61,0003.90,0003.42
2022-05-24 03:40:00,,0826.8,5.00,0.00,29.5,28.5,00.0,38.5,31.3,19.0,0000.0,0007.59,0003.90,0003.41
2022-05-24 03:41:00,,0826.8,5.00,0.00,29.5,28.5,00.0,38.5,31.3,18.6,0000.0,0007.44,0003.88,0003.41
2022-05-24 03:42:00,,0826.8,4.99,0.00,29.5,28.5,00.0,38.5,31.3,18.0,0000.0,0007.24,0003.83,0003.40
2022-05-24 03:43:00,,0826.9,4.99,0.00,29.5,28.5,00.0,38.5,31.3,17.9,0000.0,0007.20,0003.82,0003.40
2022-05-24 03:44:00,,0827.0,5.01,0.00,29.5,28.5,00.0,38.5,31.3,17.8,0000.0,0006.86,0003.81,0003.41
2022-05-24 03:45:00,,0827.0,5.00,0.00,29.5,28.5,00.0,38.5,31.3,17.9,0000.0,0006.81,0003.81,0003.42
2022-05-24 03:46:00,,0827.1,5.01,0.00,29.5,28.5,00.0,38.5,31.3,18.0,0000.0,0006.66,0003.83,0003.43
2022-05-24 03:47:00,,0826.9,5.00,0.00,29.5,28.5,00.0,38.5,31.4,18.2,0000.0,0006.78,0003.85,0003.43
2022-05-24 03:48:00,,0826.8,5.00,0.00,29.5,28.5,00.0,38.5,31.3,18.3,0000.0,0006.97,0003.86,0003.43
2022-05-24 03:49:00,,0826.9,5.00,0.00,29.5,28.5,00.0,38.5,31.3,18.3,0000.0,0007.22,0003.86,0003.43
2022-05-24 03:50:00,,0826.9,4.99,0.00,29.5,28.5,00.0,38.5,31.3,18.4,0000.0,0007.62,0003.86,0003.42
2022-05-24 03:51:00,,0826.9,5.00,0.00,29.5,28.5,00.0,38.5,31.4,18.4,0000.0,0007.52,0003.85,0003.43
2022-05-24 03:52:00,,0826.9,5.01,0.00,29.6,28.4,00.0,38.5,31.3,18.4,0000.0,0007.49,0003.85,0003.43
2022-05-24 03:53:00,,0826.9,5.00,0.00,29.5,28.4,00.0,38.5,31.3,18.4,0000.0,0007.55,0003.88,0003.45
2022-05-24 03:54:00,,0826.9,4.99,0.00,29.5,28.5,00.0,38.5,31.3,18.4,0000.0,0007.60,0003.88,0003.46
2022-05-24 03:55:00,,0826.9,5.00,0.00,29.5,28.5,00.0,38.5,31.3,18.2,0000.0,0007.46,0003.93,0003.49
2022-05-24 03:56:00,,0826.9,5.00,0.00,29.5,28.5,00.0,38.5,31.3,18.4,0000.0,0007.48,0003.97,0003.51
2022-05-24 03:57:00,,0826.9,5.00,0.00,29.5,28.5,00.0,38.5,31.3,18.6,0000.0,0007.56,0004.01,0003.53
2022-05-24 03:58:00,,0826.9,5.00,0.00,29.5,28.5,00.0,38.5,31.3,18.4,0000.0,0007.61,0004.04,0003.55
2022-05-24 03:59:00,,0827.0,5.00,0.00,29.5,28.5,00.0,38.5,31.3,18.5,0000.0,0007.80,0004.07,0003.59
